Weather History for Limon, CO

Change the Weather History Date:

Tuesday, January 8, 2013

  Actual Average Record
Temperature  
Mean Temperature 29 °F -  
Max Temperature 50 °F - 69 °F (2003)
Min Temperature 8 °F - 8 °F (2013)
Degree Days  
Heating Degree Days 36    
Month to date heating degree days 365  
Cooling Degree Days 0    
Month to date cooling degree days 0  
Moisture  
Dew Point 14 °F    
Average Humidity 64    
Maximum Humidity 92    
Minimum Humidity 25    
Precipitation  
Precipitation 0.00 in - 0.02 in (2012)
Month to date precipitation T  
Year to date precipitation T  
Sea Level Pressure  
Sea Level Pressure 30.05 in    
Wind  
Wind Speed 5 mph (North)    
Max Wind Speed 15 mph    
Max Gust Speed 17 mph    
Visibility 10 miles    
Events      
T = Trace of Precipitation, MM = Missing Value Source: NWS Daily Summary

Daily Weather History Graph

Daily Weather History Graph

Search for Another Location

Airport:

Trip Planner

Search our weather history database for the weather conditions in past years. The results will help you decide how hot, cold, wet, or windy it might be!

Date:

Astronomy

Jan. 08, 2013 Rise Set
Actual Time 7:14 AM MST 4:48 PM MST
Civil Twilight 6:44 AM MST 5:18 PM MST
Nautical Twilight 6:11 AM MST 5:52 PM MST
Astronomical Twilight 5:39 AM MST 6:24 PM MST
Moon 3:50 AM MST (1/8) 1:53 PM MST (1/8)
Length of Visible Light 10h 34m
Length of Day
9h 34m
Waning Crescent, 13% of the Moon is Illuminated
Jan 8
Waning Crescent
Jan 11
New
Jan 18
First Quarter
Jan 26
Full
Feb 3
Last Quarter

Hourly Weather History & Observations

Time (MST) Temp. Windchill Dew Point Humidity Pressure Visibility Wind Dir Wind Speed Gust Speed Precip Events Conditions
12:55 AM 10.9 °F 1.4 °F 7.0 °F 84% 29.86 in 10.0 mi North 5.8 mph - N/A   Clear
1:55 AM 9.0 °F -0.9 °F 5.0 °F 84% 29.84 in 10.0 mi North 5.8 mph - N/A   Clear
2:55 AM 10.0 °F - 6.1 °F 84% 29.84 in 10.0 mi Calm Calm - N/A   Clear
3:55 AM 10.0 °F - 6.1 °F 84% 29.84 in 10.0 mi Calm Calm - N/A   Clear
4:55 AM 19.9 °F 9.3 °F 10.0 °F 65% 29.85 in 10.0 mi NNW 9.2 mph - N/A   Clear
5:55 AM 28.0 °F 18.6 °F 10.9 °F 49% 29.88 in 10.0 mi WNW 10.4 mph - N/A   Clear
6:55 AM 30.0 °F 20.5 °F 14.0 °F 51% 29.90 in 10.0 mi NNW 11.5 mph - N/A   Clear
7:55 AM 28.0 °F 22.8 °F 14.0 °F 56% 29.95 in 10.0 mi NW 4.6 mph - N/A   Clear
8:55 AM 30.0 °F - 16.0 °F 56% 30.01 in 10.0 mi Calm Calm - N/A   Clear
9:55 AM 37.9 °F 32.7 °F 19.0 °F 47% 30.01 in 10.0 mi NNW 6.9 mph - N/A   Clear
10:55 AM 46.0 °F 44.8 °F 18.0 °F 33% 29.98 in 10.0 mi West 3.5 mph - N/A   Clear
11:55 AM 48.0 °F - 14.0 °F 26% 29.97 in 10.0 mi NNE 3.5 mph - N/A   Clear
12:55 PM 48.9 °F - 14.0 °F 25% 29.98 in 10.0 mi Calm Calm - N/A   Clear
1:55 PM 48.0 °F - 15.1 °F 27% 30.02 in 10.0 mi SE 5.8 mph - N/A   Clear
2:55 PM 46.0 °F 39.9 °F 21.0 °F 37% 30.06 in 10.0 mi ENE 13.8 mph - N/A   Clear
3:55 PM 41.0 °F 35.2 °F 23.0 °F 49% 30.13 in 10.0 mi ENE 9.2 mph - N/A   Clear
4:55 PM 33.1 °F - 21.0 °F 61% 30.15 in 10.0 mi Calm Calm - N/A   Clear
5:55 PM 26.1 °F - 19.9 °F 78% 30.19 in 10.0 mi Calm Calm - N/A   Clear
6:55 PM 23.0 °F - 18.0 °F 81% 30.22 in 10.0 mi Calm Calm - N/A   Clear
7:55 PM 19.9 °F - 17.1 °F 89% 30.26 in 10.0 mi Calm Calm - N/A   Clear
8:55 PM 17.1 °F 11.7 °F 15.1 °F 92% 30.29 in 10.0 mi North 3.5 mph - N/A   Clear
9:55 PM 16.0 °F 8.8 °F 14.0 °F 92% 30.30 in 10.0 mi North 4.6 mph - N/A   Clear
10:55 PM 15.1 °F - 12.9 °F 91% 30.30 in 10.0 mi Calm Calm - N/A   Clear
11:55 PM 14.0 °F - 10.9 °F 88% 30.30 in 10.0 mi Calm Calm - N/A   Clear